Weather History for Bigfork, MN

Change the Weather History Date:

Monday, March 3, 2014

  Actual Average (KGPZ) Record (KGPZ)
Temperature  
Mean Temperature -12 °F -  
Max Temperature 10 °F 32 °F 57 °F (1993)
Min Temperature -34 °F 7 °F -32 °F (1916)
Degree Days  
Heating Degree Days 77    
Moisture  
Dew Point -17 °F    
Average Humidity 66    
Maximum Humidity 85    
Minimum Humidity 44    
Precipitation  
Precipitation 0.00 in - - ()
Sea Level Pressure  
Sea Level Pressure 30.30 in    
Wind  
Wind Speed 0 mph (SW)    
Max Wind Speed 6 mph    
Max Gust Speed -    
Visibility 8 miles    
Events Snow    
Averages and records for this station are not official NWS values.
T = Trace of Precipitation, MM = Missing Value Source: NWS Daily Summary

Daily Weather History Graph

Daily Weather History Graph

Search for Another Location

Airport:

Trip Planner

Search our weather history database for the weather conditions in past years. The results will help you decide how hot, cold, wet, or windy it might be!

Date:

Astronomy

Mar. 03, 2014 Rise Set
Actual Time 6:51 AM CST 6:02 PM CST
Civil Twilight 6:20 AM CST 6:33 PM CST
Nautical Twilight 5:44 AM CST 7:09 PM CST
Astronomical Twilight 5:08 AM CST 7:45 PM CST
Moon 7:46 AM CST (3/3) 9:22 PM CST (3/3)
Length of Visible Light 12h 12m
Length of Day
11h 10m
Waxing Crescent, 8% of the Moon is Illuminated
Mar 3
Waxing Crescent
Mar 8
First Quarter
Mar 16
Full
Mar 23
Last Quarter
Mar 30
New

Hourly Weather History & Observations

Time (CST) Temp. Windchill Dew Point Humidity Pressure Visibility Wind Dir Wind Speed Gust Speed Precip Events Conditions
12:13 AM -23.8 °F - -29.2 °F 76% 30.42 in 10.0 mi Calm Calm - N/A   Clear
12:33 AM -25.6 °F - -32.8 °F 69% 30.42 in 10.0 mi Calm Calm - N/A   Clear
12:53 AM -27.4 °F - -34.6 °F 69% 30.42 in 10.0 mi Calm Calm - N/A   Clear
1:13 AM -27.4 °F - -34.6 °F 69% 30.42 in 10.0 mi Calm Calm - N/A   Clear
1:33 AM -27.4 °F - -34.6 °F 69% 30.42 in 10.0 mi Calm Calm - N/A   Clear
1:53 AM -29.2 °F - -36.4 °F 68% 30.43 in 10.0 mi Calm Calm - N/A   Clear
2:13 AM -29.2 °F - -36.4 °F 68% 30.42 in 10.0 mi Calm Calm - N/A   Clear
2:33 AM -29.2 °F - -38.2 °F 62% 30.42 in 10.0 mi Calm Calm - N/A   Clear
2:53 AM -29.2 °F - -38.2 °F 62% 30.41 in 10.0 mi Calm Calm - N/A   Clear
3:13 AM -31.0 °F - -38.2 °F 68% 30.40 in 10.0 mi Calm Calm - N/A   Clear
3:33 AM -31.0 °F - -38.2 °F 68% 30.40 in 10.0 mi Calm Calm - N/A   Clear
3:53 AM -32.8 °F - -41.8 °F 62% 30.39 in 10.0 mi Calm Calm - N/A   Clear
4:13 AM -32.8 °F - -41.8 °F 62% 30.39 in 10.0 mi Calm Calm - N/A   Clear
4:33 AM -32.8 °F - -41.8 °F 62% 30.39 in 10.0 mi Calm Calm - N/A   Clear
4:53 AM -32.8 °F - -40.0 °F 68% 30.39 in 10.0 mi Calm Calm - N/A   Clear
5:13 AM -32.8 °F - -41.8 °F 62% 30.39 in 10.0 mi Calm Calm - N/A   Clear
5:33 AM -32.8 °F - -41.8 °F 62% 30.39 in 10.0 mi Calm Calm - N/A   Clear
5:53 AM -34.6 °F - -41.8 °F 68% 30.38 in 10.0 mi Calm Calm - N/A   Clear
6:13 AM -34.6 °F - -43.6 °F 61% 30.39 in 10.0 mi Calm Calm - N/A   Clear
6:33 AM -34.6 °F - -43.6 °F 61% 30.38 in 10.0 mi Calm Calm - N/A   Clear
6:53 AM -34.6 °F - -43.6 °F 61% 30.38 in 10.0 mi Calm Calm - N/A   Clear
7:13 AM -32.8 °F - -41.8 °F 62% 30.37 in 10.0 mi Calm Calm - N/A   Clear
7:33 AM -32.8 °F - -41.8 °F 62% 30.36 in 10.0 mi Calm Calm - N/A   Clear
7:53 AM -27.4 °F - -34.6 °F 69% 30.35 in 10.0 mi Calm Calm - N/A   Clear
8:13 AM -25.6 °F - -32.8 °F 69% 30.36 in 10.0 mi Calm Calm - N/A   Clear
8:33 AM -20.2 °F - -27.4 °F 69% 30.36 in 10.0 mi Calm Calm - N/A   Clear
8:53 AM - - - N/A% 30.35 in 10.0 mi Calm Calm - N/A   Clear
9:13 AM -13.0 °F - -20.2 °F 70% 30.34 in 10.0 mi Calm Calm - N/A   Clear
9:33 AM -9.4 °F - -18.4 °F 65% 30.34 in 10.0 mi Calm Calm - N/A   Clear
9:53 AM -5.8 °F - -14.8 °F 65% 30.33 in 10.0 mi Calm Calm - N/A   Clear
10:13 AM -2.2 °F -12.5 °F -13.0 °F 60% 30.33 in 10.0 mi SW 4.6 mph - N/A   Clear
10:33 AM -0.4 °F -8.3 °F -11.2 °F 60% 30.33 in 10.0 mi SW 3.5 mph - N/A   Clear
10:53 AM 1.4 °F -6.2 °F -11.2 °F 56% 30.33 in 10.0 mi SW 3.5 mph - N/A   Clear
11:13 AM 1.4 °F -6.2 °F -11.2 °F 56% 30.32 in 10.0 mi SW 3.5 mph - N/A   Clear
11:33 AM 3.2 °F - -9.4 °F 56% 30.31 in 10.0 mi Calm Calm - N/A   Clear
11:53 AM 3.2 °F - -11.2 °F 51% 30.31 in 10.0 mi Calm Calm - N/A   Clear
12:13 PM 5.0 °F - -11.2 °F 47% 30.30 in 10.0 mi Calm Calm - N/A   Clear
12:33 PM 6.8 °F - -9.4 °F 48% 30.29 in 10.0 mi Calm Calm - N/A   Clear
12:53 PM 6.8 °F - -9.4 °F 48% 30.29 in 10.0 mi Calm Calm - N/A   Clear
1:13 PM 8.6 °F - -9.4 °F 44% 30.28 in 10.0 mi Calm Calm - N/A   Clear
1:33 PM 8.6 °F - -9.4 °F 44% 30.27 in 10.0 mi Calm Calm - N/A   Clear
1:53 PM 8.6 °F - -7.6 °F 48% 30.26 in 10.0 mi Calm Calm - N/A   Clear
2:13 PM 10.4 °F - -7.6 °F 44% 30.26 in 10.0 mi Calm Calm - N/A   Clear
2:33 PM 8.6 °F 2.0 °F -7.6 °F 48% 30.25 in 10.0 mi SSW 3.5 mph - N/A   Clear
2:53 PM 10.4 °F 0.8 °F -7.6 °F 44% 30.24 in 10.0 mi WSW 5.8 mph - N/A   Clear
3:13 PM 8.6 °F - -7.6 °F 48% 30.24 in 10.0 mi Calm Calm - N/A   Clear
3:33 PM 10.4 °F - -5.8 °F 48% 30.23 in 10.0 mi Calm Calm - N/A   Clear
3:53 PM 10.4 °F - -5.8 °F 48% 30.23 in 10.0 mi Calm Calm - N/A   Clear
4:13 PM 8.6 °F 2.0 °F -5.8 °F 52% 30.22 in 10.0 mi SW 3.5 mph - N/A   Clear
4:33 PM 8.6 °F 0.1 °F -2.2 °F 62% 30.23 in 7.0 mi WSW 4.6 mph - N/A   Clear
4:53 PM 8.6 °F - -2.2 °F 62% 30.23 in 3.0 mi Calm Calm - N/A Snow Light Snow
5:13 PM 8.6 °F - -0.4 °F 67% 30.22 in 7.0 mi Calm Calm - N/A Snow Light Snow
5:33 PM 8.6 °F - -0.4 °F 67% 30.22 in 5.0 mi Calm Calm - N/A Snow Light Snow
5:53 PM 6.8 °F - -0.4 °F 72% 30.21 in 3.0 mi Calm Calm - N/A Snow Light Snow
6:13 PM 6.8 °F - 1.4 °F 79% 30.21 in 5.0 mi Calm Calm - N/A Snow Light Snow
6:33 PM 6.8 °F - 1.4 °F 79% 30.22 in 3.0 mi Calm Calm - N/A Snow Light Snow
6:53 PM 6.8 °F - 1.4 °F 79% 30.21 in 3.0 mi Calm Calm - N/A Snow Light Snow
7:13 PM 6.8 °F - 1.4 °F 79% 30.21 in 3.0 mi Calm Calm - N/A Snow Light Snow
7:33 PM 6.8 °F - 1.4 °F 79% 30.21 in 2.5 mi Calm Calm - N/A Snow Light Snow
7:53 PM 5.0 °F - 1.4 °F 85% 30.20 in 5.0 mi Calm Calm - N/A Snow Light Snow
8:13 PM 3.2 °F - -0.4 °F 85% 30.20 in 5.0 mi Calm Calm - N/A Snow Light Snow
8:34 PM 5.0 °F - -0.4 °F 78% 30.20 in 4.0 mi Calm Calm - N/A Snow Light Snow
8:53 PM 3.2 °F - -0.4 °F 85% 30.19 in 2.5 mi Calm Calm - N/A Snow Light Snow
9:13 PM 3.2 °F - -0.4 °F 85% 30.19 in 2.5 mi Calm Calm - N/A Snow Light Snow
9:33 PM 3.2 °F - -0.4 °F 85% 30.18 in 4.0 mi Calm Calm - N/A Snow Light Snow
9:53 PM 3.2 °F - -0.4 °F 85% 30.18 in 5.0 mi Calm Calm - N/A Snow Light Snow
10:13 PM 3.2 °F - -0.4 °F 85% 30.18 in 7.0 mi Calm Calm - N/A Snow Light Snow
10:33 PM 3.2 °F - -0.4 °F 85% 30.18 in 5.0 mi Calm Calm - N/A Snow Light Snow
10:53 PM 3.2 °F - -0.4 °F 85% 30.18 in 1.8 mi Calm Calm - N/A Snow Light Snow
11:13 PM 3.2 °F - -0.4 °F 85% 30.18 in 2.0 mi Calm Calm - N/A Snow Light Snow
11:33 PM 3.2 °F - -0.4 °F 85% 30.18 in 1.8 mi Calm Calm - N/A Snow Light Snow
11:53 PM 3.2 °F - -0.4 °F 85% 30.18 in 1.8 mi Calm Calm - N/A Snow Light Snow